Time,TemperatureF,DewpointF,PressureIn,WindDirection,WindDirectionDegrees,WindSpeedMPH,WindSpeedGustMPH,Humidity,HourlyPrecipIn,Conditions,Clouds,dailyrainin,SoftwareType,DateUTC
2013-03-18 00:00:00,38.5,34.9,29.87,North,0,0.0,0.0,87,0.03,,,0.00,WUHU216HW,2013-03-18 07:00:00,
2013-03-18 00:05:00,38.5,34.9,29.86,North,0,0.0,0.0,87,0.03,,,0.00,WUHU216HW,2013-03-18 07:05:00,
2013-03-18 00:10:00,38.5,34.9,29.86,North,0,0.0,0.0,87,0.03,,,0.00,WUHU216HW,2013-03-18 07:10:00,
2013-03-18 00:15:00,38.5,34.9,29.86,North,0,0.0,0.0,87,0.03,,,0.00,WUHU216HW,2013-03-18 07:15:00,
2013-03-18 00:20:00,38.3,34.7,29.86,North,0,0.0,0.0,87,0.03,,,0.00,WUHU216HW,2013-03-18 07:20:00,
2013-03-18 00:25:00,38.2,34.6,29.86,North,0,0.0,0.0,87,0.01,,,0.00,WUHU216HW,2013-03-18 07:25:00,
2013-03-18 00:30:00,38.2,34.6,29.86,North,0,0.0,0.0,87,0.01,,,0.00,WUHU216HW,2013-03-18 07:30:00,
2013-03-18 00:35:00,38.0,34.4,29.86,North,0,0.0,0.0,87,0.01,,,0.00,WUHU216HW,2013-03-18 07:35:00,
2013-03-18 00:40:00,37.8,34.2,29.86,North,0,0.0,0.0,87,0.01,,,0.00,WUHU216HW,2013-03-18 07:40:00,
2013-03-18 00:45:00,37.8,34.2,29.85,North,0,0.0,0.0,87,0.01,,,0.00,WUHU216HW,2013-03-18 07:45:00,
2013-03-18 00:50:00,37.6,34.0,29.85,North,0,0.0,0.0,87,0.01,,,0.00,WUHU216HW,2013-03-18 07:50:00,
2013-03-18 00:55:00,37.4,33.8,29.85,North,0,0.0,0.0,87,0.01,,,0.00,WUHU216HW,2013-03-18 07:55:00,
2013-03-18 01:00:00,37.3,33.7,29.85,North,0,0.0,0.0,87,0.00,,,0.00,WUHU216HW,2013-03-18 08:00:00,
2013-03-18 01:05:00,37.1,33.5,29.85,North,0,0.0,0.0,87,0.00,,,0.00,WUHU216HW,2013-03-18 08:05:00,
2013-03-18 01:10:00,37.1,33.5,29.85,North,0,0.0,0.0,87,0.00,,,0.00,WUHU216HW,2013-03-18 08:10:00,
2013-03-18 01:15:00,37.1,33.5,29.85,North,0,0.0,0.0,87,0.00,,,0.00,WUHU216HW,2013-03-18 08:15:00,
2013-03-18 01:20:00,37.1,33.5,29.85,North,0,0.0,0.0,87,0.00,,,0.00,WUHU216HW,2013-03-18 08:20:00,
2013-03-18 01:25:00,37.1,33.9,29.85,North,0,0.0,0.0,88,0.00,,,0.00,WUHU216HW,2013-03-18 08:25:00,
2013-03-18 01:30:00,37.1,33.9,29.85,North,0,0.0,0.0,88,0.00,,,0.00,WUHU216HW,2013-03-18 08:30:00,
2013-03-18 01:35:00,37.3,34.0,29.85,North,0,0.0,0.0,88,0.00,,,0.00,WUHU216HW,2013-03-18 08:35:00,
2013-03-18 01:40:00,37.3,34.3,29.84,North,0,0.0,0.0,89,0.00,,,0.00,WUHU216HW,2013-03-18 08:40:00,
2013-03-18 01:45:00,37.3,34.0,29.84,North,0,0.0,0.0,88,0.00,,,0.00,WUHU216HW,2013-03-18 08:45:00,
2013-03-18 01:50:00,37.4,34.7,29.84,North,0,0.0,0.0,90,0.00,,,0.00,WUHU216HW,2013-03-18 08:50:00,
2013-03-18 01:55:00,37.4,34.7,29.83,North,0,0.0,0.0,90,0.00,,,0.00,WUHU216HW,2013-03-18 08:55:00,
2013-03-18 02:00:00,37.4,34.7,29.83,North,0,0.0,0.0,90,0.00,,,0.00,WUHU216HW,2013-03-18 09:00:00,
2013-03-18 02:05:00,37.6,34.9,29.83,North,0,0.0,0.0,90,0.00,,,0.00,WUHU216HW,2013-03-18 09:05:00,
2013-03-18 02:10:00,37.6,34.9,29.83,North,0,0.0,0.0,90,0.00,,,0.00,WUHU216HW,2013-03-18 09:10:00,
2013-03-18 02:15:00,37.6,34.9,29.83,North,0,0.0,0.0,90,0.00,,,0.00,WUHU216HW,2013-03-18 09:15:00,
2013-03-18 02:20:00,37.6,34.9,29.83,North,0,0.0,0.0,90,0.00,,,0.00,WUHU216HW,2013-03-18 09:20:00,
2013-03-18 02:25:00,37.8,35.1,29.83,North,0,0.0,0.0,90,0.00,,,0.00,WUHU216HW,2013-03-18 09:25:00,
2013-03-18 02:30:00,37.8,34.8,29.82,North,0,0.0,0.0,89,0.00,,,0.00,WUHU216HW,2013-03-18 09:30:00,
2013-03-18 02:35:00,37.8,35.1,29.82,North,0,0.0,0.0,90,0.00,,,0.00,WUHU216HW,2013-03-18 09:35:00,
2013-03-18 02:40:00,38.0,35.0,29.83,North,0,0.0,0.0,89,0.00,,,0.00,WUHU216HW,2013-03-18 09:40:00,
2013-03-18 02:45:00,38.0,35.3,29.82,North,0,0.0,0.0,90,0.00,,,0.00,WUHU216HW,2013-03-18 09:45:00,
2013-03-18 02:50:00,38.2,35.2,29.83,North,0,0.0,0.0,89,0.00,,,0.00,WUHU216HW,2013-03-18 09:50:00,
2013-03-18 02:55:00,38.3,35.6,29.83,North,0,0.0,0.0,90,0.00,,,0.00,WUHU216HW,2013-03-18 09:55:00,
2013-03-18 03:00:00,38.3,35.6,29.82,North,0,0.0,0.0,90,0.00,,,0.00,WUHU216HW,2013-03-18 10:00:00,
2013-03-18 03:05:00,38.5,35.8,29.81,North,0,0.0,0.0,90,0.00,,,0.00,WUHU216HW,2013-03-18 10:05:00,
2013-03-18 03:10:00,38.5,35.8,29.81,North,0,0.0,0.0,90,0.00,,,0.00,WUHU216HW,2013-03-18 10:10:00,
2013-03-18 03:15:00,38.7,35.7,29.81,North,0,0.0,0.0,89,0.00,,,0.00,WUHU216HW,2013-03-18 10:15:00,
2013-03-18 03:20:00,38.9,35.9,29.81,North,0,0.0,0.0,89,0.00,,,0.00,WUHU216HW,2013-03-18 10:20:00,
2013-03-18 03:25:00,38.9,35.9,29.81,North,0,0.0,0.0,89,0.00,,,0.00,WUHU216HW,2013-03-18 10:25:00,
2013-03-18 03:30:00,38.9,35.9,29.81,North,0,0.0,0.0,89,0.00,,,0.00,WUHU216HW,2013-03-18 10:30:00,
2013-03-18 03:35:00,39.1,36.1,29.81,North,0,0.0,0.0,89,0.00,,,0.00,WUHU216HW,2013-03-18 10:35:00,
2013-03-18 03:40:00,39.1,36.1,29.81,North,0,0.0,0.0,89,0.00,,,0.00,WUHU216HW,2013-03-18 10:40:00,
2013-03-18 03:45:00,39.1,36.1,29.81,North,0,0.0,0.0,89,0.00,,,0.00,WUHU216HW,2013-03-18 10:45:00,
2013-03-18 03:50:00,39.2,36.3,29.80,North,0,0.0,0.0,89,0.00,,,0.00,WUHU216HW,2013-03-18 10:50:00,
2013-03-18 03:55:00,39.2,36.3,29.81,North,0,0.0,0.0,89,0.00,,,0.00,WUHU216HW,2013-03-18 10:55:00,
2013-03-18 04:00:00,39.2,36.0,29.80,North,0,0.0,0.0,88,0.00,,,0.00,WUHU216HW,2013-03-18 11:00:00,
2013-03-18 04:05:00,39.2,36.0,29.80,North,0,0.0,0.0,88,0.00,,,0.00,WUHU216HW,2013-03-18 11:05:00,
2013-03-18 04:10:00,39.2,36.0,29.80,North,0,0.0,0.0,88,0.00,,,0.00,WUHU216HW,2013-03-18 11:10:00,
2013-03-18 04:15:00,39.2,36.0,29.80,North,0,0.0,0.0,88,0.00,,,0.00,WUHU216HW,2013-03-18 11:15:00,
2013-03-18 04:20:00,39.4,36.2,29.80,North,0,0.0,0.0,88,0.00,,,0.00,WUHU216HW,2013-03-18 11:20:00,
2013-03-18 04:25:00,39.4,36.2,29.80,North,0,0.0,0.0,88,0.00,,,0.00,WUHU216HW,2013-03-18 11:25:00,
2013-03-18 04:30:00,39.4,35.8,29.80,North,0,0.0,0.0,87,0.00,,,0.00,WUHU216HW,2013-03-18 11:30:00,
2013-03-18 04:35:00,39.6,36.0,29.80,North,0,0.0,0.0,87,0.00,,,0.00,WUHU216HW,2013-03-18 11:35:00,
2013-03-18 04:40:00,39.6,36.0,29.80,North,0,0.0,0.0,87,0.00,,,0.00,WUHU216HW,2013-03-18 11:40:00,
2013-03-18 04:45:00,39.6,36.0,29.79,North,0,0.0,0.0,87,0.00,,,0.00,WUHU216HW,2013-03-18 11:45:00,
2013-03-18 04:50:00,39.6,36.0,29.79,North,0,0.0,0.0,87,0.00,,,0.00,WUHU216HW,2013-03-18 11:50:00,
2013-03-18 04:55:00,39.8,36.2,29.79,North,0,0.0,0.0,87,0.00,,,0.00,WUHU216HW,2013-03-18 11:55:00,
2013-03-18 05:00:00,39.8,36.2,29.79,North,0,0.0,0.0,87,0.00,,,0.00,WUHU216HW,2013-03-18 12:00:00,
2013-03-18 05:05:00,40.0,36.4,29.80,North,0,0.0,0.0,87,0.00,,,0.00,WUHU216HW,2013-03-18 12:05:00,
2013-03-18 05:10:00,40.0,36.4,29.81,North,0,0.0,0.0,87,0.00,,,0.00,WUHU216HW,2013-03-18 12:10:00,
2013-03-18 05:15:00,40.0,36.4,29.81,North,0,0.0,0.0,87,0.00,,,0.00,WUHU216HW,2013-03-18 12:15:00,
2013-03-18 05:20:00,40.0,36.4,29.81,North,0,0.0,0.0,87,0.00,,,0.00,WUHU216HW,2013-03-18 12:20:00,
2013-03-18 05:25:00,40.0,36.4,29.81,North,0,0.0,0.0,87,0.00,,,0.00,WUHU216HW,2013-03-18 12:25:00,
2013-03-18 05:30:00,40.0,36.4,29.81,North,0,0.0,0.0,87,0.00,,,0.00,WUHU216HW,2013-03-18 12:30:00,
2013-03-18 05:35:00,40.0,36.4,29.81,North,0,0.0,0.0,87,0.00,,,0.00,WUHU216HW,2013-03-18 12:35:00,
2013-03-18 05:40:00,40.0,36.4,29.81,North,0,0.0,0.0,87,0.00,,,0.00,WUHU216HW,2013-03-18 12:40:00,
2013-03-18 05:45:00,40.1,36.5,29.81,North,0,0.0,0.0,87,0.00,,,0.00,WUHU216HW,2013-03-18 12:45:00,
2013-03-18 05:50:00,40.1,36.5,29.81,North,0,0.0,0.0,87,0.01,,,0.01,WUHU216HW,2013-03-18 12:50:00,
2013-03-18 05:55:00,40.1,36.5,29.81,North,0,0.0,0.0,87,0.01,,,0.01,WUHU216HW,2013-03-18 12:55:00,
2013-03-18 06:00:00,40.1,36.5,29.81,North,0,0.0,0.0,87,0.01,,,0.01,WUHU216HW,2013-03-18 13:00:00,
2013-03-18 06:05:00,40.0,36.4,29.81,North,0,0.0,0.0,87,0.02,,,0.02,WUHU216HW,2013-03-18 13:05:00,
2013-03-18 06:10:00,40.0,36.4,29.82,North,0,0.0,0.0,87,0.02,,,0.02,WUHU216HW,2013-03-18 13:10:00,
2013-03-18 06:15:00,40.0,36.4,29.82,North,0,0.0,0.0,87,0.02,,,0.02,WUHU216HW,2013-03-18 13:15:00,
2013-03-18 06:20:00,40.0,36.4,29.82,North,0,0.0,0.0,87,0.03,,,0.03,WUHU216HW,2013-03-18 13:20:00,
2013-03-18 06:25:00,40.0,36.6,29.82,North,0,0.0,0.0,88,0.05,,,0.05,WUHU216HW,2013-03-18 13:25:00,
2013-03-18 06:30:00,40.0,37.0,29.82,North,0,0.0,0.0,89,0.05,,,0.05,WUHU216HW,2013-03-18 13:30:00,
2013-03-18 06:35:00,40.0,37.0,29.82,North,0,0.0,0.0,89,0.06,,,0.06,WUHU216HW,2013-03-18 13:35:00,
2013-03-18 06:40:00,39.8,36.8,29.82,North,0,0.0,0.0,89,0.06,,,0.06,WUHU216HW,2013-03-18 13:40:00,
2013-03-18 06:45:00,39.8,36.8,29.82,North,0,0.0,0.0,89,0.06,,,0.06,WUHU216HW,2013-03-18 13:45:00,
2013-03-18 06:50:00,39.8,36.8,29.82,North,0,0.0,0.0,89,0.05,,,0.06,WUHU216HW,2013-03-18 13:50:00,
2013-03-18 06:55:00,39.8,36.8,29.82,North,0,0.0,0.0,89,0.06,,,0.07,WUHU216HW,2013-03-18 13:55:00,
2013-03-18 07:00:00,39.8,36.8,29.82,North,0,0.0,0.0,89,0.06,,,0.07,WUHU216HW,2013-03-18 14:00:00,
2013-03-18 07:05:00,39.6,36.6,29.82,North,0,0.0,0.0,89,0.05,,,0.07,WUHU216HW,2013-03-18 14:05:00,
2013-03-18 07:10:00,39.6,36.6,29.82,North,0,0.0,0.0,89,0.05,,,0.07,WUHU216HW,2013-03-18 14:10:00,
2013-03-18 07:15:00,39.6,36.6,29.81,North,0,0.0,0.0,89,0.05,,,0.07,WUHU216HW,2013-03-18 14:15:00,
2013-03-18 07:20:00,39.6,36.6,29.81,North,0,0.0,0.0,89,0.04,,,0.07,WUHU216HW,2013-03-18 14:20:00,
2013-03-18 07:25:00,39.6,36.9,29.82,North,0,0.0,0.0,90,0.02,,,0.07,WUHU216HW,2013-03-18 14:25:00,
2013-03-18 07:30:00,39.6,36.6,29.82,North,0,0.0,0.0,89,0.02,,,0.07,WUHU216HW,2013-03-18 14:30:00,
2013-03-18 07:35:00,39.6,36.6,29.82,North,0,0.0,0.0,89,0.01,,,0.07,WUHU216HW,2013-03-18 14:35:00,
2013-03-18 07:40:00,39.8,37.1,29.83,North,0,0.0,0.0,90,0.01,,,0.07,WUHU216HW,2013-03-18 14:40:00,
2013-03-18 07:45:00,39.8,37.1,29.83,North,0,0.0,0.0,90,0.01,,,0.07,WUHU216HW,2013-03-18 14:45:00,
2013-03-18 07:50:00,39.8,37.1,29.83,North,0,0.0,0.0,90,0.01,,,0.07,WUHU216HW,2013-03-18 14:50:00,
2013-03-18 07:55:00,39.8,37.1,29.83,North,0,0.0,0.0,90,0.00,,,0.07,WUHU216HW,2013-03-18 14:55:00,
2013-03-18 08:00:00,40.0,37.3,29.83,North,0,0.0,0.0,90,0.00,,,0.07,WUHU216HW,2013-03-18 15:00:00,
2013-03-18 08:05:00,40.0,37.3,29.83,North,0,0.0,0.0,90,0.00,,,0.07,WUHU216HW,2013-03-18 15:05:00,
2013-03-18 08:10:00,40.0,37.3,29.83,North,0,0.0,0.0,90,0.00,,,0.07,WUHU216HW,2013-03-18 15:10:00,
2013-03-18 08:15:00,40.1,37.4,29.83,North,0,0.0,0.0,90,0.00,,,0.07,WUHU216HW,2013-03-18 15:15:00,
2013-03-18 08:20:00,40.1,37.4,29.83,North,0,0.0,0.0,90,0.00,,,0.07,WUHU216HW,2013-03-18 15:20:00,
2013-03-18 08:25:00,40.3,37.6,29.83,North,0,0.0,0.0,90,0.00,,,0.07,WUHU216HW,2013-03-18 15:25:00,
2013-03-18 08:30:00,40.3,37.6,29.83,North,0,0.0,0.0,90,0.00,,,0.07,WUHU216HW,2013-03-18 15:30:00,
2013-03-18 08:35:00,40.5,37.8,29.83,North,0,0.0,0.0,90,0.00,,,0.07,WUHU216HW,2013-03-18 15:35:00,
2013-03-18 08:40:00,40.5,38.1,29.83,North,0,0.0,0.0,91,0.00,,,0.07,WUHU216HW,2013-03-18 15:40:00,
2013-03-18 08:45:00,40.7,38.0,29.83,North,0,0.0,0.0,90,0.00,,,0.07,WUHU216HW,2013-03-18 15:45:00,
2013-03-18 08:50:00,40.9,38.2,29.83,North,0,0.0,0.0,90,0.00,,,0.07,WUHU216HW,2013-03-18 15:50:00,
2013-03-18 08:55:00,41.0,38.3,29.83,North,0,0.0,0.0,90,0.00,,,0.07,WUHU216HW,2013-03-18 15:55:00,
2013-03-18 09:00:00,41.2,38.5,29.83,North,0,0.0,0.0,90,0.00,,,0.07,WUHU216HW,2013-03-18 16:00:00,
2013-03-18 09:05:00,41.2,38.5,29.84,North,0,0.0,0.0,90,0.00,,,0.07,WUHU216HW,2013-03-18 16:05:00,
2013-03-18 09:10:00,41.4,38.7,29.84,North,0,0.0,0.0,90,0.00,,,0.07,WUHU216HW,2013-03-18 16:10:00,
2013-03-18 09:15:00,41.6,38.9,29.85,North,0,0.0,0.0,90,0.00,,,0.07,WUHU216HW,2013-03-18 16:15:00,
2013-03-18 09:20:00,41.8,39.1,29.85,North,0,0.0,0.0,90,0.00,,,0.07,WUHU216HW,2013-03-18 16:20:00,
2013-03-18 09:25:00,41.8,39.1,29.85,North,0,0.0,0.0,90,0.00,,,0.07,WUHU216HW,2013-03-18 16:25:00,
2013-03-18 09:30:00,42.1,39.4,29.85,North,0,0.0,0.0,90,0.00,,,0.07,WUHU216HW,2013-03-18 16:30:00,
2013-03-18 09:35:00,42.3,39.6,29.85,North,0,0.0,0.0,90,0.00,,,0.07,WUHU216HW,2013-03-18 16:35:00,
2013-03-18 09:40:00,42.5,39.5,29.85,North,0,0.0,0.0,89,0.00,,,0.07,WUHU216HW,2013-03-18 16:40:00,
2013-03-18 09:45:00,42.8,39.9,29.85,North,0,0.0,0.0,89,0.00,,,0.07,WUHU216HW,2013-03-18 16:45:00,
2013-03-18 09:50:00,43.4,40.4,29.85,North,0,0.0,0.0,89,0.00,,,0.07,WUHU216HW,2013-03-18 16:50:00,
2013-03-18 09:55:00,43.7,40.8,29.85,North,0,0.0,0.0,89,0.00,,,0.07,WUHU216HW,2013-03-18 16:55:00,
2013-03-18 10:00:00,44.3,41.0,29.85,North,0,0.0,0.0,88,0.00,,,0.07,WUHU216HW,2013-03-18 17:00:00,
2013-03-18 10:05:00,44.5,41.1,29.86,North,0,0.0,0.0,88,0.00,,,0.07,WUHU216HW,2013-03-18 17:05:00,
2013-03-18 10:10:00,44.6,41.3,29.86,North,0,0.0,0.0,88,0.00,,,0.07,WUHU216HW,2013-03-18 17:10:00,
2013-03-18 10:15:00,44.6,41.1,29.86,North,0,0.0,0.0,87,0.00,,,0.07,WUHU216HW,2013-03-18 17:15:00,
2013-03-18 10:20:00,44.8,41.2,29.86,North,0,0.0,0.0,87,0.00,,,0.07,WUHU216HW,2013-03-18 17:20:00,
2013-03-18 10:25:00,45.2,41.6,29.86,North,0,0.0,0.0,87,0.00,,,0.07,WUHU216HW,2013-03-18 17:25:00,
2013-03-18 10:30:00,45.2,41.2,29.86,North,0,0.0,0.0,86,0.00,,,0.07,WUHU216HW,2013-03-18 17:30:00,
2013-03-18 10:35:00,45.4,41.1,29.86,North,0,0.0,0.0,85,0.00,,,0.07,WUHU216HW,2013-03-18 17:35:00,
2013-03-18 10:40:00,45.4,40.2,29.86,North,0,0.0,0.0,82,0.00,,,0.07,WUHU216HW,2013-03-18 17:40:00,
2013-03-18 10:45:00,45.4,40.2,29.86,North,0,0.0,0.0,82,0.00,,,0.07,WUHU216HW,2013-03-18 17:45:00,
2013-03-18 10:50:00,45.4,37.9,29.86,North,0,0.0,0.0,75,0.00,,,0.07,WUHU216HW,2013-03-18 17:50:00,
2013-03-18 10:55:00,45.4,38.3,29.86,North,0,0.0,0.0,76,0.00,,,0.07,WUHU216HW,2013-03-18 17:55:00,
2013-03-18 11:00:00,45.5,38.1,29.86,North,0,0.0,0.0,75,0.00,,,0.07,WUHU216HW,2013-03-18 18:00:00,
2013-03-18 11:05:00,45.4,36.9,29.86,North,0,0.0,0.0,72,0.00,,,0.07,WUHU216HW,2013-03-18 18:05:00,
2013-03-18 11:10:00,45.5,36.7,29.86,North,0,0.0,0.0,71,0.00,,,0.07,WUHU216HW,2013-03-18 18:10:00,
2013-03-18 11:15:00,45.5,36.7,29.87,North,0,0.0,0.0,71,0.00,,,0.07,WUHU216HW,2013-03-18 18:15:00,
2013-03-18 11:20:00,45.5,35.2,29.87,North,0,0.0,0.0,67,0.00,,,0.07,WUHU216HW,2013-03-18 18:20:00,
2013-03-18 11:25:00,45.7,35.7,29.87,North,0,0.0,0.0,68,0.00,,,0.07,WUHU216HW,2013-03-18 18:25:00,
2013-03-18 11:30:00,45.7,35.7,29.87,North,0,0.0,0.0,68,0.00,,,0.07,WUHU216HW,2013-03-18 18:30:00,
2013-03-18 11:35:00,46.1,36.1,29.87,North,0,0.0,0.0,68,0.00,,,0.07,WUHU216HW,2013-03-18 18:35:00,
2013-03-18 11:40:00,46.1,34.9,29.88,North,0,0.0,0.0,65,0.00,,,0.07,WUHU216HW,2013-03-18 18:40:00,
2013-03-18 11:45:00,46.1,34.9,29.87,North,0,0.0,0.0,65,0.00,,,0.07,WUHU216HW,2013-03-18 18:45:00,
2013-03-18 11:50:00,46.4,36.1,29.87,North,0,0.0,0.0,67,0.00,,,0.07,WUHU216HW,2013-03-18 18:50:00,
2013-03-18 11:55:00,47.2,35.6,29.87,North,0,0.0,0.0,64,0.00,,,0.07,WUHU216HW,2013-03-18 18:55:00,
2013-03-18 12:00:00,47.3,36.2,29.88,North,0,0.0,0.0,65,0.00,,,0.07,WUHU216HW,2013-03-18 19:00:00,
2013-03-18 12:05:00,47.5,35.6,29.87,North,0,0.0,0.0,63,0.00,,,0.07,WUHU216HW,2013-03-18 19:05:00,
2013-03-18 12:10:00,47.7,34.9,29.87,North,0,0.0,0.0,61,0.00,,,0.07,WUHU216HW,2013-03-18 19:10:00,
2013-03-18 12:15:00,48.1,36.5,29.88,North,0,0.0,0.0,64,0.00,,,0.07,WUHU216HW,2013-03-18 19:15:00,
2013-03-18 12:20:00,48.6,35.8,29.88,North,0,0.0,0.0,61,0.00,,,0.07,WUHU216HW,2013-03-18 19:20:00,
2013-03-18 12:25:00,48.4,35.6,29.88,North,0,0.0,0.0,61,0.00,,,0.07,WUHU216HW,2013-03-18 19:25:00,
2013-03-18 12:30:00,48.2,35.5,29.88,North,0,0.0,0.0,61,0.00,,,0.07,WUHU216HW,2013-03-18 19:30:00,
2013-03-18 12:35:00,48.2,35.5,29.88,North,0,0.0,0.0,61,0.00,,,0.07,WUHU216HW,2013-03-18 19:35:00,
2013-03-18 12:40:00,48.8,34.7,29.88,North,0,0.0,0.0,58,0.00,,,0.07,WUHU216HW,2013-03-18 19:40:00,
2013-03-18 12:45:00,49.0,35.3,29.88,North,0,0.0,0.0,59,0.00,,,0.07,WUHU216HW,2013-03-18 19:45:00,
2013-03-18 12:50:00,49.7,36.4,29.88,North,0,0.0,0.0,60,0.00,,,0.07,WUHU216HW,2013-03-18 19:50:00,
2013-03-18 12:55:00,49.7,34.1,29.88,North,0,0.0,0.0,55,0.00,,,0.07,WUHU216HW,2013-03-18 19:55:00,
2013-03-18 13:00:00,49.7,33.2,29.89,North,0,0.0,0.0,53,0.00,,,0.07,WUHU216HW,2013-03-18 20:00:00,
2013-03-18 13:05:00,49.0,32.9,29.88,North,0,0.0,0.0,54,0.00,,,0.07,WUHU216HW,2013-03-18 20:05:00,
2013-03-18 13:10:00,49.0,34.4,29.88,North,0,0.0,0.0,57,0.00,,,0.07,WUHU216HW,2013-03-18 20:10:00,
2013-03-18 13:15:00,49.3,35.2,29.89,North,0,0.0,0.0,58,0.00,,,0.07,WUHU216HW,2013-03-18 20:15:00,
2013-03-18 13:20:00,49.7,35.0,29.89,North,0,0.0,0.0,57,0.00,,,0.07,WUHU216HW,2013-03-18 20:20:00,
2013-03-18 13:25:00,50.2,33.8,29.89,North,0,0.0,0.0,53,0.00,,,0.07,WUHU216HW,2013-03-18 20:25:00,
2013-03-18 13:30:00,49.5,33.0,29.89,North,0,0.0,0.0,53,0.00,,,0.07,WUHU216HW,2013-03-18 20:30:00,
2013-03-18 13:35:00,49.3,33.8,29.89,North,0,0.0,0.0,55,0.00,,,0.07,WUHU216HW,2013-03-18 20:35:00,
2013-03-18 13:40:00,49.5,34.4,29.89,North,0,0.0,0.0,56,0.00,,,0.07,WUHU216HW,2013-03-18 20:40:00,
2013-03-18 13:45:00,50.0,35.4,29.89,North,0,0.0,0.0,57,0.00,,,0.07,WUHU216HW,2013-03-18 20:45:00,
2013-03-18 13:50:00,50.0,34.0,29.89,North,0,0.0,0.0,54,0.00,,,0.07,WUHU216HW,2013-03-18 20:50:00,
2013-03-18 13:55:00,49.9,34.3,29.89,North,0,0.0,0.0,55,0.00,,,0.07,WUHU216HW,2013-03-18 20:55:00,
2013-03-18 14:00:00,50.6,34.5,29.89,North,0,0.0,0.0,54,0.00,,,0.07,WUHU216HW,2013-03-18 21:00:00,
2013-03-18 14:05:00,50.8,33.3,29.89,North,0,0.0,0.0,51,0.00,,,0.07,WUHU216HW,2013-03-18 21:05:00,
2013-03-18 14:10:00,50.8,34.7,29.90,North,0,0.0,0.0,54,0.00,,,0.07,WUHU216HW,2013-03-18 21:10:00,
2013-03-18 14:15:00,50.9,33.0,29.89,North,0,0.0,0.0,50,0.00,,,0.07,WUHU216HW,2013-03-18 21:15:00,
2013-03-18 14:20:00,50.8,30.6,29.89,North,0,0.0,0.0,46,0.00,,,0.07,WUHU216HW,2013-03-18 21:20:00,
2013-03-18 14:25:00,50.9,33.5,29.90,North,0,0.0,0.0,51,0.00,,,0.07,WUHU216HW,2013-03-18 21:25:00,
2013-03-18 14:30:00,51.1,33.2,29.90,North,0,0.0,0.0,50,0.00,,,0.07,WUHU216HW,2013-03-18 21:30:00,
2013-03-18 14:35:00,51.3,30.6,29.90,North,0,0.0,0.0,45,0.00,,,0.07,WUHU216HW,2013-03-18 21:35:00,
2013-03-18 14:40:00,51.5,32.9,29.90,North,0,0.0,0.0,49,0.00,,,0.07,WUHU216HW,2013-03-18 21:40:00,
2013-03-18 14:45:00,51.8,31.6,29.90,North,0,0.0,0.0,46,0.00,,,0.07,WUHU216HW,2013-03-18 21:45:00,
2013-03-18 14:50:00,52.2,32.0,29.90,North,0,0.0,0.0,46,0.00,,,0.07,WUHU216HW,2013-03-18 21:50:00,
2013-03-18 14:55:00,52.0,32.3,29.90,North,0,0.0,0.0,47,0.00,,,0.07,WUHU216HW,2013-03-18 21:55:00,
2013-03-18 15:00:00,51.8,33.8,29.91,North,0,0.0,0.0,50,0.00,,,0.07,WUHU216HW,2013-03-18 22:00:00,
2013-03-18 15:05:00,51.8,32.1,29.91,North,0,0.0,0.0,47,0.00,,,0.07,WUHU216HW,2013-03-18 22:05:00,
2013-03-18 15:10:00,51.3,31.7,29.91,North,0,0.0,0.0,47,0.00,,,0.07,WUHU216HW,2013-03-18 22:10:00,
2013-03-18 15:15:00,51.1,33.2,29.91,North,0,0.0,0.0,50,0.00,,,0.07,WUHU216HW,2013-03-18 22:15:00,
2013-03-18 15:20:00,51.1,29.9,29.91,North,0,0.0,0.0,44,0.00,,,0.07,WUHU216HW,2013-03-18 22:20:00,
2013-03-18 15:25:00,50.8,30.6,29.91,North,0,0.0,0.0,46,0.00,,,0.07,WUHU216HW,2013-03-18 22:25:00,
2013-03-18 15:30:00,50.8,31.2,29.91,North,0,0.0,0.0,47,0.00,,,0.07,WUHU216HW,2013-03-18 22:30:00,
2013-03-18 15:35:00,50.8,30.6,29.91,North,0,0.0,0.0,46,0.00,,,0.07,WUHU216HW,2013-03-18 22:35:00,
2013-03-18 15:40:00,50.8,30.6,29.90,North,0,0.0,0.0,46,0.00,,,0.07,WUHU216HW,2013-03-18 22:40:00,
2013-03-18 15:45:00,50.8,30.6,29.90,North,0,0.0,0.0,46,0.00,,,0.07,WUHU216HW,2013-03-18 22:45:00,
2013-03-18 15:50:00,50.4,30.3,29.91,North,0,0.0,0.0,46,0.00,,,0.07,WUHU216HW,2013-03-18 22:50:00,
2013-03-18 15:55:00,50.4,32.6,29.91,North,0,0.0,0.0,50,0.00,,,0.07,WUHU216HW,2013-03-18 22:55:00,
2013-03-18 16:00:00,50.6,32.1,29.91,North,0,0.0,0.0,49,0.00,,,0.07,WUHU216HW,2013-03-18 23:00:00,
2013-03-18 16:05:00,50.4,32.0,29.91,North,0,0.0,0.0,49,0.00,,,0.07,WUHU216HW,2013-03-18 23:05:00,
2013-03-18 16:10:00,50.6,31.1,29.91,North,0,0.0,0.0,47,0.00,,,0.07,WUHU216HW,2013-03-18 23:10:00,
2013-03-18 16:15:00,50.4,30.3,29.91,North,0,0.0,0.0,46,0.00,,,0.07,WUHU216HW,2013-03-18 23:15:00,
2013-03-18 16:20:00,50.6,31.6,29.91,North,0,0.0,0.0,48,0.00,,,0.07,WUHU216HW,2013-03-18 23:20:00,
2013-03-18 16:25:00,50.4,31.4,29.91,North,0,0.0,0.0,48,0.00,,,0.07,WUHU216HW,2013-03-18 23:25:00,
2013-03-18 16:30:00,50.0,31.7,29.91,North,0,0.0,0.0,49,0.00,,,0.07,WUHU216HW,2013-03-18 23:30:00,
2013-03-18 16:35:00,49.9,32.5,29.91,North,0,0.0,0.0,51,0.00,,,0.07,WUHU216HW,2013-03-18 23:35:00,
2013-03-18 16:40:00,49.9,32.5,29.91,North,0,0.0,0.0,51,0.00,,,0.07,WUHU216HW,2013-03-18 23:40:00,
2013-03-18 16:45:00,49.9,33.4,29.91,North,0,0.0,0.0,53,0.00,,,0.07,WUHU216HW,2013-03-18 23:45:00,
2013-03-18 16:50:00,50.0,33.6,29.91,North,0,0.0,0.0,53,0.00,,,0.07,WUHU216HW,2013-03-18 23:50:00,
2013-03-18 16:55:00,50.0,33.1,29.91,North,0,0.0,0.0,52,0.00,,,0.07,WUHU216HW,2013-03-18 23:55:00,
2013-03-18 17:00:00,49.9,33.4,29.91,North,0,0.0,0.0,53,0.00,,,0.07,WUHU216HW,2013-03-19 00:00:00,
2013-03-18 17:05:00,49.9,33.4,29.91,North,0,0.0,0.0,53,0.00,,,0.07,WUHU216HW,2013-03-19 00:05:00,
2013-03-18 17:10:00,49.7,33.7,29.91,North,0,0.0,0.0,54,0.00,,,0.07,WUHU216HW,2013-03-19 00:10:00,
2013-03-18 17:15:00,49.7,34.1,29.91,North,0,0.0,0.0,55,0.00,,,0.07,WUHU216HW,2013-03-19 00:15:00,
2013-03-18 17:20:00,49.9,34.7,29.91,North,0,0.0,0.0,56,0.00,,,0.07,WUHU216HW,2013-03-19 00:20:00,
2013-03-18 17:25:00,49.9,33.8,29.92,North,0,0.0,0.0,54,0.00,,,0.07,WUHU216HW,2013-03-19 00:25:00,
2013-03-18 17:30:00,49.5,33.9,29.91,North,0,0.0,0.0,55,0.00,,,0.07,WUHU216HW,2013-03-19 00:30:00,
2013-03-18 17:35:00,49.3,33.8,29.91,North,0,0.0,0.0,55,0.00,,,0.07,WUHU216HW,2013-03-19 00:35:00,
2013-03-18 17:40:00,49.3,34.2,29.91,North,0,0.0,0.0,56,0.00,,,0.07,WUHU216HW,2013-03-19 00:40:00,
2013-03-18 17:45:00,49.3,34.2,29.91,North,0,0.0,0.0,56,0.00,,,0.07,WUHU216HW,2013-03-19 00:45:00,
2013-03-18 17:50:00,49.3,34.8,29.91,North,0,0.0,0.0,57,0.00,,,0.07,WUHU216HW,2013-03-19 00:50:00,
2013-03-18 17:55:00,49.3,34.2,29.91,North,0,0.0,0.0,56,0.00,,,0.07,WUHU216HW,2013-03-19 00:55:00,
2013-03-18 18:00:00,49.1,33.7,29.91,North,0,0.0,0.0,55,0.00,,,0.07,WUHU216HW,2013-03-19 01:00:00,
2013-03-18 18:05:00,48.8,33.8,29.91,North,0,0.0,0.0,56,0.00,,,0.07,WUHU216HW,2013-03-19 01:05:00,
2013-03-18 18:10:00,48.8,34.2,29.92,North,0,0.0,0.0,57,0.00,,,0.07,WUHU216HW,2013-03-19 01:10:00,
2013-03-18 18:15:00,48.8,34.2,29.92,North,0,0.0,0.0,57,0.00,,,0.07,WUHU216HW,2013-03-19 01:15:00,
2013-03-18 18:20:00,48.6,34.0,29.92,North,0,0.0,0.0,57,0.00,,,0.07,WUHU216HW,2013-03-19 01:20:00,
2013-03-18 18:25:00,48.6,34.5,29.92,North,0,0.0,0.0,58,0.00,,,0.07,WUHU216HW,2013-03-19 01:25:00,
2013-03-18 18:30:00,48.6,34.5,29.92,North,0,0.0,0.0,58,0.00,,,0.07,WUHU216HW,2013-03-19 01:30:00,
2013-03-18 18:35:00,48.6,34.5,29.92,North,0,0.0,0.0,58,0.00,,,0.07,WUHU216HW,2013-03-19 01:35:00,
2013-03-18 18:40:00,48.6,34.0,29.92,North,0,0.0,0.0,57,0.00,,,0.07,WUHU216HW,2013-03-19 01:40:00,
2013-03-18 18:45:00,48.4,34.3,29.92,North,0,0.0,0.0,58,0.00,,,0.07,WUHU216HW,2013-03-19 01:45:00,
2013-03-18 18:50:00,48.2,34.2,29.92,North,0,0.0,0.0,58,0.00,,,0.07,WUHU216HW,2013-03-19 01:50:00,
2013-03-18 18:55:00,48.1,34.0,29.92,North,0,0.0,0.0,58,0.00,,,0.07,WUHU216HW,2013-03-19 01:55:00,
2013-03-18 19:00:00,47.9,34.3,29.93,North,0,0.0,0.0,59,0.00,,,0.07,WUHU216HW,2013-03-19 02:00:00,
2013-03-18 19:05:00,47.9,34.7,29.93,North,0,0.0,0.0,60,0.00,,,0.07,WUHU216HW,2013-03-19 02:05:00,
2013-03-18 19:10:00,47.7,34.6,29.93,North,0,0.0,0.0,60,0.00,,,0.07,WUHU216HW,2013-03-19 02:10:00,
2013-03-18 19:15:00,47.5,34.4,29.93,North,0,0.0,0.0,60,0.00,,,0.07,WUHU216HW,2013-03-19 02:15:00,
2013-03-18 19:20:00,47.3,33.8,29.93,North,0,0.0,0.0,59,0.00,,,0.07,WUHU216HW,2013-03-19 02:20:00,
2013-03-18 19:25:00,47.2,33.6,29.93,North,0,0.0,0.0,59,0.00,,,0.07,WUHU216HW,2013-03-19 02:25:00,
2013-03-18 19:30:00,47.0,33.8,29.93,North,0,0.0,0.0,60,0.00,,,0.07,WUHU216HW,2013-03-19 02:30:00,
2013-03-18 19:35:00,46.8,33.7,29.93,North,0,0.0,0.0,60,0.00,,,0.07,WUHU216HW,2013-03-19 02:35:00,
2013-03-18 19:40:00,46.8,33.7,29.93,North,0,0.0,0.0,60,0.00,,,0.07,WUHU216HW,2013-03-19 02:40:00,
2013-03-18 19:45:00,46.6,33.8,29.93,North,0,0.0,0.0,61,0.00,,,0.07,WUHU216HW,2013-03-19 02:45:00,
2013-03-18 19:50:00,46.4,33.7,29.93,North,0,0.0,0.0,61,0.00,,,0.07,WUHU216HW,2013-03-19 02:50:00,
2013-03-18 19:55:00,46.3,33.9,29.93,North,0,0.0,0.0,62,0.00,,,0.07,WUHU216HW,2013-03-19 02:55:00,
2013-03-18 20:00:00,46.1,34.1,29.94,North,0,0.0,0.0,63,0.00,,,0.07,WUHU216HW,2013-03-19 03:00:00,
2013-03-18 20:05:00,45.7,33.9,29.94,North,0,0.0,0.0,63,0.00,,,0.07,WUHU216HW,2013-03-19 03:05:00,
2013-03-18 20:10:00,45.7,34.2,29.94,North,0,0.0,0.0,64,0.00,,,0.07,WUHU216HW,2013-03-19 03:10:00,
2013-03-18 20:15:00,45.4,33.8,29.94,North,0,0.0,0.0,64,0.00,,,0.07,WUHU216HW,2013-03-19 03:15:00,
2013-03-18 20:20:00,45.4,34.3,29.94,North,0,0.0,0.0,65,0.00,,,0.07,WUHU216HW,2013-03-19 03:20:00,
2013-03-18 20:25:00,45.2,34.1,29.94,North,0,0.0,0.0,65,0.00,,,0.07,WUHU216HW,2013-03-19 03:25:00,
2013-03-18 20:30:00,45.2,33.7,29.94,North,0,0.0,0.0,64,0.00,,,0.07,WUHU216HW,2013-03-19 03:30:00,
2013-03-18 20:35:00,45.2,33.7,29.94,North,0,0.0,0.0,64,0.00,,,0.07,WUHU216HW,2013-03-19 03:35:00,
2013-03-18 20:40:00,45.4,33.8,29.94,North,0,0.0,0.0,64,0.00,,,0.07,WUHU216HW,2013-03-19 03:40:00,
2013-03-18 20:45:00,45.4,33.8,29.94,North,0,0.0,0.0,64,0.00,,,0.07,WUHU216HW,2013-03-19 03:45:00,
2013-03-18 20:50:00,45.2,33.7,29.94,North,0,0.0,0.0,64,0.00,,,0.07,WUHU216HW,2013-03-19 03:50:00,
2013-03-18 20:55:00,45.0,33.9,29.94,North,0,0.0,0.0,65,0.00,,,0.07,WUHU216HW,2013-03-19 03:55:00,
2013-03-18 21:00:00,45.0,33.9,29.94,North,0,0.0,0.0,65,0.00,,,0.07,WUHU216HW,2013-03-19 04:00:00,
2013-03-18 21:05:00,44.8,33.8,29.94,North,0,0.0,0.0,65,0.00,,,0.07,WUHU216HW,2013-03-19 04:05:00,
2013-03-18 21:10:00,44.6,33.9,29.94,North,0,0.0,0.0,66,0.00,,,0.07,WUHU216HW,2013-03-19 04:10:00,
2013-03-18 21:15:00,44.3,33.6,29.94,North,0,0.0,0.0,66,0.00,,,0.07,WUHU216HW,2013-03-19 04:15:00,
2013-03-18 21:20:00,44.1,33.9,29.94,North,0,0.0,0.0,67,0.00,,,0.07,WUHU216HW,2013-03-19 04:20:00,
2013-03-18 21:25:00,43.9,33.7,29.94,North,0,0.0,0.0,67,0.00,,,0.07,WUHU216HW,2013-03-19 04:25:00,
2013-03-18 21:30:00,43.6,33.8,29.94,North,0,0.0,0.0,68,0.00,,,0.07,WUHU216HW,2013-03-19 04:30:00,
2013-03-18 21:35:00,43.2,33.4,29.94,North,0,0.0,0.0,68,0.00,,,0.07,WUHU216HW,2013-03-19 04:35:00,
2013-03-18 21:40:00,43.0,33.2,29.94,North,0,0.0,0.0,68,0.00,,,0.07,WUHU216HW,2013-03-19 04:40:00,
2013-03-18 21:45:00,42.7,32.9,29.94,North,0,0.0,0.0,68,0.00,,,0.07,WUHU216HW,2013-03-19 04:45:00,
2013-03-18 21:50:00,42.3,33.0,29.94,North,0,0.0,0.0,69,0.00,,,0.07,WUHU216HW,2013-03-19 04:50:00,
2013-03-18 21:55:00,42.1,33.1,29.94,North,0,0.0,0.0,70,0.00,,,0.07,WUHU216HW,2013-03-19 04:55:00,
2013-03-18 22:00:00,41.8,32.8,29.94,North,0,0.0,0.0,70,0.00,,,0.07,WUHU216HW,2013-03-19 05:00:00,
2013-03-18 22:05:00,41.4,33.0,29.94,North,0,0.0,0.0,72,0.00,,,0.07,WUHU216HW,2013-03-19 05:05:00,
2013-03-18 22:10:00,41.2,32.6,29.94,North,0,0.0,0.0,71,0.00,,,0.07,WUHU216HW,2013-03-19 05:10:00,
2013-03-18 22:15:00,41.0,33.3,29.94,North,0,0.0,0.0,74,0.00,,,0.07,WUHU216HW,2013-03-19 05:15:00,
2013-03-18 22:20:00,40.7,33.0,29.94,North,0,0.0,0.0,74,0.00,,,0.07,WUHU216HW,2013-03-19 05:20:00,
2013-03-18 22:25:00,40.3,32.9,29.94,North,0,0.0,0.0,75,0.00,,,0.07,WUHU216HW,2013-03-19 05:25:00,
2013-03-18 22:30:00,40.3,32.7,29.94,North,0,0.0,0.0,74,0.00,,,0.07,WUHU216HW,2013-03-19 05:30:00,
2013-03-18 22:35:00,40.1,32.5,29.94,North,0,0.0,0.0,74,0.00,,,0.07,WUHU216HW,2013-03-19 05:35:00,
2013-03-18 22:40:00,40.0,32.3,29.94,North,0,0.0,0.0,74,0.00,,,0.07,WUHU216HW,2013-03-19 05:40:00,
2013-03-18 22:45:00,39.8,32.1,29.94,North,0,0.0,0.0,74,0.00,,,0.07,WUHU216HW,2013-03-19 05:45:00,
2013-03-18 22:50:00,39.4,31.8,29.94,North,0,0.0,0.0,74,0.00,,,0.07,WUHU216HW,2013-03-19 05:50:00,
2013-03-18 22:55:00,39.2,31.6,29.94,North,0,0.0,0.0,74,0.00,,,0.07,WUHU216HW,2013-03-19 05:55:00,
2013-03-18 23:00:00,39.1,31.4,29.95,North,0,0.0,0.0,74,0.00,,,0.07,WUHU216HW,2013-03-19 06:00:00,
2013-03-18 23:05:00,38.7,31.4,29.95,North,0,0.0,0.0,75,0.00,,,0.07,WUHU216HW,2013-03-19 06:05:00,
2013-03-18 23:10:00,38.5,31.2,29.95,North,0,0.0,0.0,75,0.00,,,0.07,WUHU216HW,2013-03-19 06:10:00,
2013-03-18 23:15:00,38.2,31.2,29.95,North,0,0.0,0.0,76,0.00,,,0.07,WUHU216HW,2013-03-19 06:15:00,
2013-03-18 23:20:00,38.0,31.1,29.95,North,0,0.0,0.0,76,0.00,,,0.07,WUHU216HW,2013-03-19 06:20:00,
2013-03-18 23:25:00,37.8,31.2,29.95,North,0,0.0,0.0,77,0.00,,,0.07,WUHU216HW,2013-03-19 06:25:00,
2013-03-18 23:30:00,37.6,31.1,29.95,North,0,0.0,0.0,77,0.00,,,0.07,WUHU216HW,2013-03-19 06:30:00,
2013-03-18 23:35:00,37.4,31.2,29.94,North,0,0.0,0.0,78,0.00,,,0.07,WUHU216HW,2013-03-19 06:35:00,
2013-03-18 23:40:00,37.3,31.1,29.94,North,0,0.0,0.0,78,0.00,,,0.07,WUHU216HW,2013-03-19 06:40:00,
2013-03-18 23:45:00,37.1,31.5,29.94,North,0,0.0,0.0,80,0.00,,,0.07,WUHU216HW,2013-03-19 06:45:00,
2013-03-18 23:50:00,36.7,31.1,29.94,North,0,0.0,0.0,80,0.00,,,0.07,WUHU216HW,2013-03-19 06:50:00,
2013-03-18 23:55:00,36.5,31.0,29.94,North,0,0.0,0.0,80,0.00,,,0.07,WUHU216HW,2013-03-19 06:55:00,